Date String (YYYY-MM-DD hh:mm:ss) UTC,Instrument flags,absolute air pressure of the measurement (hPa),sample flow rate (lpm),inlet stack bypass flow (lpm),air temperature of the measurement (°C),ambient temperature measured by the external sensor (°C),aerosol sample conditioner tube jacket temperature (°C),OPC LED temperature (°C),internal box temperature (°C),relative humidity of the measurement (%),span deviation,mass concentration of particles derived from Lorenz-Mie calculation of OPC scattering (μg/m³),mass concentration of particles derived from Lorenz-Mie calculation of OPC scattering (μg/m³),mass concentration of particles derived from Lorenz-Mie calculation of OPC scattering (μg/m³)
DateTimeUTC,F1_M11,P_M11,Q1_M11,Q2_M11,T1_M11,T2_M11,T3_M11,T4_M11,T5_M11,U1_M11,ZSPAN_M11,X0_M11,X2_M11,X1_M11
2024-02-07 13:00:00,SystemResetWarning,0813.4,5.01,000.00,018.9,018.2,000.0,027.3,020.6,18.3,0000.0,0005.71,0003.53,0003.37
2024-02-07 13:01:00,SystemResetWarning,0813.4,5.01,000.00,018.9,018.2,000.0,027.3,020.6,18.4,0000.0,0005.35,0003.50,0003.35
2024-02-07 13:02:00,SystemResetWarning,0813.3,4.99,000.00,018.9,018.2,000.0,027.3,020.6,18.4,0000.0,0006.10,0003.50,0003.35
2024-02-07 13:03:00,SystemResetWarning,0813.4,4.99,000.00,018.9,018.2,000.0,027.3,020.6,18.4,0000.0,0006.11,0003.48,0003.34
2024-02-07 13:04:00,SystemResetWarning,0813.4,4.99,000.00,018.9,018.2,000.0,027.3,020.6,18.4,0000.0,0006.07,0003.48,0003.34
2024-02-07 13:05:00,SystemResetWarning,0813.5,5.01,000.00,018.9,018.1,000.0,027.3,020.6,18.4,0000.0,0005.52,0003.50,0003.37
2024-02-07 13:06:00,SystemResetWarning,0813.5,5.00,000.00,018.9,018.2,000.0,027.3,020.6,18.5,0000.0,0005.58,0003.52,0003.40
2024-02-07 13:07:00,SystemResetWarning,0813.4,5.01,000.00,018.9,018.1,000.0,027.3,020.5,18.5,0000.0,0005.84,0003.58,0003.45
2024-02-07 13:08:00,SystemResetWarning,0813.4,4.98,000.00,018.9,018.1,000.0,027.3,020.5,18.6,0000.0,0007.59,0003.68,0003.51
2024-02-07 13:09:00,SystemResetWarning,0813.3,4.99,000.00,018.9,018.1,000.0,027.3,020.5,18.6,0000.0,0007.67,0003.73,0003.55
2024-02-07 13:10:00,SystemResetWarning,0813.4,5.01,000.00,018.8,018.1,000.0,027.3,020.5,18.6,0000.0,0007.74,0003.79,0003.60
2024-02-07 13:11:00,SystemResetWarning,0813.3,5.00,000.00,018.8,018.1,000.0,027.3,020.5,18.6,0000.0,0008.05,0003.85,0003.65
2024-02-07 13:12:00,SystemResetWarning,0813.3,5.01,000.00,018.8,018.1,000.0,027.3,020.5,18.5,0000.0,0008.46,0003.88,0003.69
2024-02-07 13:13:00,SystemResetWarning,0813.3,4.99,000.00,018.8,018.1,000.0,027.3,020.5,18.6,0000.0,0008.00,0003.91,0003.73
2024-02-07 13:14:00,SystemResetWarning,0813.3,4.99,000.00,018.8,018.1,000.0,027.3,020.5,18.5,0000.0,0007.99,0003.95,0003.77
2024-02-07 13:15:00,SystemResetWarning,0813.2,5.00,000.00,018.8,018.1,000.0,027.3,020.5,18.4,0000.0,0007.98,0003.96,0003.77
2024-02-07 13:16:00,SystemResetWarning,0813.2,5.00,000.00,018.8,018.1,000.0,027.3,020.5,18.3,0000.0,0008.00,0003.97,0003.77
2024-02-07 13:17:00,SystemResetWarning,0813.2,5.01,000.00,018.8,018.1,000.0,027.2,020.5,18.2,0000.0,0008.02,0003.97,0003.77
2024-02-07 13:18:00,SystemResetWarning,0813.3,5.01,000.00,018.8,018.1,000.0,027.2,020.5,18.2,0000.0,0008.06,0003.96,0003.75
2024-02-07 13:19:00,SystemResetWarning,0813.3,5.00,000.00,018.8,018.1,000.0,027.2,020.4,18.2,0000.0,0007.19,0003.92,0003.73
2024-02-07 13:20:00,SystemResetWarning,0813.3,5.00,000.00,018.8,018.1,000.0,027.2,020.4,18.3,0000.0,0006.90,0003.91,0003.70
2024-02-07 13:21:00,SystemResetWarning,0813.3,5.00,000.00,018.8,018.1,000.0,027.2,020.4,18.4,0000.0,0007.03,0003.86,0003.67
2024-02-07 13:22:00,SystemResetWarning,0813.3,5.00,000.00,018.8,018.1,000.0,027.2,020.4,18.4,0000.0,0006.98,0003.82,0003.63
2024-02-07 13:23:00,SystemResetWarning,0813.2,4.99,000.00,018.8,018.1,000.0,027.2,020.4,18.4,0000.0,0005.91,0003.78,0003.60
2024-02-07 13:24:00,SystemResetWarning,0813.2,5.00,000.00,018.8,018.1,000.0,027.2,020.4,18.4,0000.0,0005.72,0003.75,0003.55
2024-02-07 13:25:00,SystemResetWarning,0813.2,5.00,000.00,018.8,018.1,000.0,027.2,020.4,18.4,0000.0,0005.66,0003.70,0003.50
2024-02-07 13:26:00,SystemResetWarning,0813.2,5.00,000.00,018.8,018.0,000.0,027.2,020.4,18.4,0000.0,0005.86,0003.66,0003.45
2024-02-07 13:27:00,SystemResetWarning,0813.2,5.00,000.00,018.8,018.0,000.0,027.2,020.4,18.4,0000.0,0006.79,0003.63,0003.42
2024-02-07 13:28:00,SystemResetWarning,0813.2,5.00,000.00,018.8,018.0,000.0,027.2,020.3,18.3,0000.0,0006.67,0003.59,0003.39
2024-02-07 13:29:00,SystemResetWarning,0813.1,5.01,000.00,018.7,018.0,000.0,027.1,020.3,18.2,0000.0,0006.46,0003.57,0003.37
2024-02-07 13:30:00,SystemResetWarning,0813.1,4.99,000.00,018.7,018.0,000.0,027.1,020.3,18.2,0000.0,0006.38,0003.56,0003.36
2024-02-07 13:31:00,SystemResetWarning,0813.2,4.99,000.00,018.7,018.0,000.0,027.1,020.3,18.2,0000.0,0006.31,0003.54,0003.36
2024-02-07 13:32:00,SystemResetWarning,0813.1,5.00,000.00,018.7,018.0,000.0,027.1,020.3,18.2,0000.0,0005.92,0003.52,0003.36
2024-02-07 13:33:00,SystemResetWarning,0813.2,5.00,000.00,018.7,018.0,000.0,027.1,020.3,18.3,0000.0,0006.06,0003.54,0003.36
2024-02-07 13:34:00,SystemResetWarning,0813.2,5.01,000.00,018.7,018.0,000.0,027.1,020.3,18.3,0000.0,0006.28,0003.53,0003.36
2024-02-07 13:35:00,SystemResetWarning,0813.2,5.00,000.00,018.7,018.0,000.0,027.1,020.3,18.3,0000.0,0006.21,0003.52,0003.36
2024-02-07 13:36:00,SystemResetWarning,0813.2,4.99,000.00,018.7,018.0,000.0,027.1,020.3,18.4,0000.0,0006.29,0003.55,0003.39
2024-02-07 13:37:00,SystemResetWarning,0813.2,5.00,000.00,018.7,018.0,000.0,027.1,020.3,18.4,0000.0,0006.40,0003.60,0003.42
2024-02-07 13:38:00,SystemResetWarning,0813.2,5.01,000.00,018.7,018.0,000.0,027.1,020.3,18.3,0000.0,0006.47,0003.65,0003.44
2024-02-07 13:39:00,SystemResetWarning,0813.2,5.00,000.00,018.7,018.0,000.0,027.1,020.3,18.3,0000.0,0007.22,0003.69,0003.46
2024-02-07 13:40:00,SystemResetWarning,0813.2,4.99,000.00,018.7,018.0,000.0,027.1,020.3,18.3,0000.0,0007.26,0003.72,0003.50
2024-02-07 13:41:00,SystemResetWarning,0813.2,5.00,000.00,018.7,018.0,000.0,027.1,020.3,18.3,0000.0,0007.51,0003.72,0003.50
2024-02-07 13:42:00,SystemResetWarning,0813.2,5.00,000.00,018.6,018.0,000.0,027.1,020.3,18.4,0000.0,0007.91,0003.73,0003.52
2024-02-07 13:43:00,SystemResetWarning,0813.1,5.00,000.00,018.6,018.0,000.0,027.1,020.3,18.5,0000.0,0007.94,0003.75,0003.55
2024-02-07 13:44:00,SystemResetWarning,0813.2,5.01,000.00,018.6,018.0,000.0,027.1,020.3,18.6,0000.0,0007.90,0003.77,0003.56
2024-02-07 13:45:00,SystemResetWarning,0813.1,5.01,000.00,018.6,018.0,000.0,027.0,020.2,18.8,0000.0,0007.88,0003.80,0003.59
2024-02-07 13:46:00,SystemResetWarning,0813.2,5.00,000.00,018.6,018.0,000.0,027.0,020.2,19.0,0000.0,0008.41,0003.87,0003.66
2024-02-07 13:47:00,SystemResetWarning,0813.2,5.00,000.00,018.6,018.0,000.0,027.0,020.2,19.3,0000.0,0008.55,0003.94,0003.72
2024-02-07 13:48:00,SystemResetWarning,0813.2,4.99,000.00,018.6,018.0,000.0,027.0,020.2,19.3,0000.0,0008.46,0003.99,0003.78
2024-02-07 13:49:00,SystemResetWarning,0813.2,4.99,000.00,018.6,018.0,000.0,027.0,020.2,19.1,0000.0,0008.16,0004.12,0003.91
2024-02-07 13:50:00,SystemResetWarning,0813.2,5.01,000.00,018.6,018.0,000.0,027.0,020.2,19.1,0000.0,0007.89,0004.27,0004.05
2024-02-07 13:51:00,SystemResetWarning,0813.2,5.01,000.00,018.6,018.0,000.0,027.0,020.2,19.0,0000.0,0008.13,0004.46,0004.23
2024-02-07 13:52:00,SystemResetWarning,0813.2,5.00,000.00,018.6,018.0,000.0,027.0,020.2,18.9,0000.7,0008.29,0004.62,0004.39
2024-02-07 13:53:00,SystemResetWarning,0813.2,4.99,000.00,018.6,017.9,000.0,027.0,020.2,19.0,0003.6,0007.85,0004.80,0004.53
2024-02-07 13:54:00,SystemResetWarning,0813.3,5.00,000.00,018.6,017.9,000.0,027.0,020.2,19.0,0001.2,0008.04,0004.94,0004.64
2024-02-07 13:55:00,SystemResetWarning,0813.4,5.00,000.00,018.6,017.9,000.0,027.0,020.2,19.1,0004.3,0008.18,0005.06,0004.75
2024-02-07 13:56:00,SystemResetWarning,0813.3,5.00,000.00,018.6,017.9,000.0,027.0,020.2,19.0,0004.6,0008.28,0005.17,0004.85
2024-02-07 13:57:00,SystemResetWarning,0813.3,5.01,000.00,018.6,017.9,000.0,027.0,020.2,18.9,0004.6,0007.99,0005.24,0004.92
2024-02-07 13:58:00,SystemResetWarning,0813.3,5.01,000.00,018.6,017.9,000.0,027.0,020.2,18.6,0005.0,0007.97,0005.29,0004.99
2024-02-07 13:59:00,SystemResetWarning,0813.3,5.00,000.00,018.6,017.9,000.0,027.0,020.2,18.2,0004.6,0008.69,0005.36,0005.05
